TimeCST,TemperatureF,Dew PointF,Humidity,Sea Level PressureIn,VisibilityMPH,Wind Direction,Wind SpeedMPH,Gust SpeedMPH,PrecipitationIn,Events,Conditions,WindDirDegrees,DateUTC
12:44 AM,28.4,23.0,80,30.12,10.0,NNW,18.4,-,N/A,,Overcast,340,2013-02-28 06:44:00
12:56 AM,28.0,23.0,81,30.17,10.0,North,19.6,26.5,N/A,,Overcast,350,2013-02-28 06:56:00
1:56 AM,27.0,21.9,81,30.18,10.0,NNW,19.6,-,N/A,,Overcast,340,2013-02-28 07:56:00
2:56 AM,27.0,21.9,81,30.18,10.0,NNW,16.1,-,N/A,,Overcast,340,2013-02-28 08:56:00
3:06 AM,26.6,21.2,80,30.13,10.0,NNW,17.3,-,N/A,,Overcast,330,2013-02-28 09:06:00
3:56 AM,26.1,21.0,81,30.19,10.0,NNW,12.7,-,N/A,,Overcast,330,2013-02-28 09:56:00
4:56 AM,26.1,21.0,81,30.19,10.0,NNW,18.4,25.3,N/A,,Overcast,330,2013-02-28 10:56:00
5:56 AM,26.1,21.0,81,30.21,10.0,NNW,17.3,-,N/A,,Overcast,330,2013-02-28 11:56:00
6:44 AM,24.8,21.2,86,30.16,10.0,NNW,16.1,-,N/A,,Overcast,340,2013-02-28 12:44:00
6:56 AM,25.0,19.9,81,30.23,10.0,NNW,17.3,25.3,N/A,,Overcast,330,2013-02-28 12:56:00
7:56 AM,25.0,19.9,81,30.24,10.0,NNW,16.1,25.3,N/A,,Overcast,340,2013-02-28 13:56:00
8:56 AM,26.1,19.9,78,30.26,10.0,NNW,19.6,-,N/A,,Overcast,330,2013-02-28 14:56:00
9:56 AM,27.0,21.0,78,30.27,10.0,NNW,18.4,-,N/A,,Overcast,330,2013-02-28 15:56:00
10:56 AM,27.0,21.0,78,30.27,10.0,NNW,19.6,-,N/A,,Overcast,330,2013-02-28 16:56:00
11:56 AM,28.0,21.0,75,30.27,10.0,NNW,16.1,-,N/A,,Overcast,330,2013-02-28 17:56:00
12:56 PM,28.0,21.0,75,30.26,10.0,NNW,15.0,-,N/A,,Overcast,330,2013-02-28 18:56:00
1:56 PM,28.0,21.0,75,30.25,10.0,NNW,18.4,-,N/A,,Overcast,330,2013-02-28 19:56:00
2:56 PM,27.0,19.9,75,30.25,10.0,NNW,16.1,-,N/A,,Overcast,340,2013-02-28 20:56:00
3:56 PM,27.0,19.9,75,30.26,10.0,NNW,15.0,-,N/A,,Overcast,340,2013-02-28 21:56:00
4:56 PM,26.1,19.9,78,30.26,10.0,NNW,13.8,-,N/A,,Overcast,340,2013-02-28 22:56:00
5:56 PM,26.1,19.0,75,30.27,10.0,NNW,17.3,-,N/A,,Overcast,330,2013-02-28 23:56:00
6:39 PM,24.8,19.4,80,30.21,10.0,NNW,13.8,-,N/A,,Overcast,340,2013-03-01 00:39:00
6:56 PM,26.1,19.0,75,30.28,10.0,North,12.7,-,N/A,,Overcast,350,2013-03-01 00:56:00
7:56 PM,26.1,19.0,75,30.29,10.0,North,12.7,-,N/A,,Overcast,350,2013-03-01 01:56:00
8:56 PM,26.1,19.0,75,30.29,10.0,North,11.5,-,N/A,,Overcast,350,2013-03-01 02:56:00
9:39 PM,26.6,19.4,74,30.23,10.0,North,11.5,-,N/A,,Overcast,360,2013-03-01 03:39:00
9:56 PM,25.0,19.0,78,30.30,10.0,North,9.2,-,N/A,,Overcast,350,2013-03-01 03:56:00
10:56 PM,25.0,19.0,78,30.28,10.0,North,8.1,-,N/A,,Overcast,350,2013-03-01 04:56:00
11:08 PM,24.8,19.4,80,30.22,10.0,North,10.4,-,N/A,,Overcast,350,2013-03-01 05:08:00
11:56 PM,25.0,19.0,78,30.27,10.0,NNW,10.4,-,N/A,,Overcast,340,2013-03-01 05:56:00